Погода в Больё-сюр-Мере

Франция     43°42′29″N   7°18′54″E
темп.,
°C
ветер,
м/с
пор.,
м/с
влажн.,
%
обл.,
%
осадки,
мм/ч
давл.,
гПа
погр.,
м
28 ноября, вс
вс2801:00+5сз45581 0.0 992142
04:00+4сз45590 0.0 992155
07:00+3сз45570 0.0 992173
10:00+6сз34365 0.0 992351
13:00+9ю23280 0.0 9921205
16:00+9ююв223677 0.0 992252
19:00+5ссз454491 0.0 993126
22:00+4ссз4444100 0.0 995120
29 ноября, пн
пн2901:00+4ссз4539100 0.0 995107
04:00+3ссз443999 0.0 99596
07:00+3ссз44366 0.0 99790
10:00+7сз332855 0.0 999149
13:00+10юз122149 0.0 1000755
16:00+9ююз243616 0.0 1003312
19:00+5ссз45433 0.1 1007124
22:00+5ссз45390 0.1 1011108
30 ноября, вт
вт3001:00+4ссз45360 0.2 1014110
04:00+3ссз45347 0.0 101696
07:00+3ссз45321 0.0 101789
10:00+7ссз34260 0.0 1020153
13:00+10юз23335 0.0 1020960
16:00+10ююз34445 0.0 1019334
19:00+7ссз215797 0.0 1020148
22:00+5ссз345123 0.0 102095
1 декабря, ср
ср101:00+5ссз345051 0.0 101985
04:00+4ссз33471 0.0 101875
07:00+4ссз33445 0.0 101675
10:00+7сз113850 0.0 1015161
13:00+9ю223716 0.0 1013463
16:00+10ссв11484 0.0 1009133
19:00+7сз22570 0.0 100974
22:00+6сз346134 0.0 100893
2 декабря, чт
чт201:00+7сз236782 0.0 1005112
04:00+6с2271100 0.0 100378
07:00+6с2270100 0.0 1002118
10:00+8с1162100 0.0 1002194
13:00+9ю225692 0.0 999818
16:00+8ююв116798 0.0 998411
19:00+6с22756 0.0 998140
22:00+5ссз346546 0.0 999100